Regional Weather Roundup
Issued by NWS Charleston, WV

Home | Current Version | Previous Version | Graphics & Text | Print | Product List | Glossary On
Versions: 1 2 3 4 5 6 7 8 9 10 11 12 13 14 15 16 17 18 19 20 21 22 23 24 25 26 27 28 29 30 31 32 33 34 35 36 37 38 39 40 41 42 43 44 45 46 47 48 49 50
000
ASUS41 KRLX 241110
RWRRLX
West Virginia Regional Weather Roundup
National Weather Service Charleston WV
700 AM EDT SAT JUN 24 2017

Note: "fair" indicates few or no clouds below 12,000 feet with no
significant weather and/or obstructions to visibility.

WVZ003-241200-
Northern Panhandle of West Virginia

CITY           SKY/WX    TMP DP  RH WIND       PRES   REMARKS
WHEELING       PTSUNNY   64  62  93 W7        29.86R
$$

WVZ009-241200-
Northwest West Virginia

CITY           SKY/WX    TMP DP  RH WIND       PRES   REMARKS
PARKERSBURG    CLOUDY    65  63  93 SW6       29.91S
$$

WVZ006-241200-
Western West Virginia

CITY           SKY/WX    TMP DP  RH WIND       PRES   REMARKS
HUNTINGTON     CLOUDY    67  65  93 W5        29.92R FOG
$$

WVZ015-241200-
West Central West Virginia

CITY           SKY/WX    TMP DP  RH WIND       PRES   REMARKS
CHARLESTON     CLOUDY    67  64  90 CALM      29.92R
$$

WVZ022-031-241200-
North Central West Virginia

CITY           SKY/WX    TMP DP  RH WIND       PRES   REMARKS
CLARKSBURG     CLOUDY    66  63  90 W8        29.89R
MORGANTOWN     CLOUDY    67  63  87 VRB5      29.87R
$$

WVZ025-035-042-045-241200-
Southern West Virginia

CITY           SKY/WX    TMP DP  RH WIND       PRES   REMARKS
BECKLEY        CLOUDY    62  60  93 SW7       29.98R
LOGAN          FOG       64  64 100 CALM      29.96R VSB 1/2
BLUEFIELD      MOCLDY    60  59  96 W7        30.01R
LEWISBURG      CLOUDY    64  59  86 W6        29.96R
$$

WVZ047-241200-
Northern Mountains of West Virginia

CITY           SKY/WX    TMP DP  RH WIND       PRES   REMARKS
ELKINS         LGT RAIN  64  61  90 VRB7      29.91R
$$

WVZ052-241200-
Eastern Panhandle of West Virginia

CITY           SKY/WX    TMP DP  RH WIND       PRES   REMARKS
MARTINSBURG    PTSUNNY   71  63  75 SW8       29.74R
PETERSBURG     CLOUDY    70  65  83 CALM      29.81R
$$



USA.gov is the U.S. government's official web portal to all federal, state and local government web resources and services.